Torna al catalogo

STARLINK-11285

AttivoComunicazioniVLEO
NORAD 61578·PAYLOAD·🇺🇸 United States

Lanciato Oct 18, 2024 da Cape Canaveral Space Force Station

Loading…

Prossimi Passaggi (prossime 24 ore)

TLE

AggiornatoSource: CelesTrak SupGP

Epoca: Sep 15, 2026, 02:43 UTC

1 61578C 24187E   26258.11368056  .00031023  00000+0  25534-3 0  2580
2 61578  53.1571  82.2575 0001065  81.4603 302.0518 15.69713646    12

Traccia STARLINK-11285 in tempo reale con AllMySat

Download on the App Store